sat.trackr.live / text

‹ back to catalog

STARLINK-33652

NORAD 63400 · 2025-065B

PAYLOAD ACTIVE UNKNOWN

§ Identity

Operator
Country
US
Launch date
2025-03-31
Launch site
AFETR
Launch vehicle
Mass (kg)
RCS (m²)

Purposes: comms

External: N2YO · Heavens-Above · Gunter

§ Orbital elements

Epoch: 2026-09-19T21:06:54.769248Z

Period
94.27 min
Inclination
42.9971°
Eccentricity
0.0001641
Mean motion
15.27591828 rev/d
Perigee alt
481.9 km
Apogee alt
484.1 km
Semi-major
6,861.2 km
B*
6.1100e-4
RAAN
89.9776°
Arg perigee
269.9105°
Mean anomaly
90.1559°
Rev number
8,254

§ Raw data

STARLINK-336521 63400U 25065B   26262.87980057  .00016595  00000+0  61100-3 0  99992 63400  42.9971  89.9776 0001641 269.9105  90.1559 15.27591828 82543

JSON: /api/v1/satellites/63400 · /tle

For live sub-satellite position, see the globe view (requires WebGL).

§ Visibility from observer

Set your observer location to see the next 7 days of passes ≥ 10°. The values pass through the URL so the page stays shareable.

No JS? Fill the form by hand. The geolocation button needs JavaScript.